SCP
0 0 0 0 0 -0 0 0 -0 -0 -0 -0 -0 -0 -0 -0 -0 -0 -0 -0 -0 -0 -0 -0 -0 -0 0 -0 -0 -0 -0 -0 -0 -0 -0 -0 0 -0 -0 -0 -0 0 0
0 0 0 0 0 0 -0 0 0 -0 0 0 -0 -0 -0 -0 -0 -0 -0 0 -0 -0 -0 -0 -0 -0 -0 -0 -0 -0 -0 -0 -0 -0 -0 -0 -0 -0 -0 -0 -0 0 0
0 0 0 0 0 0 0 0 0 -0 -0 -0 -0 -0 -0 -0 0 -0 -0 -0 -0 -0 -0 -0 -0 -0 -0 -0 -0 -0 -0 -0 -0 -0 -0 -0 -0 0 -0 -0 -0 -0 0
0 0 0 0 0 0 0 0 0 -0 -0 -0 0 -0 -0 -0 -0 0 -0 -0 -0 -0 -0 -0 0 -0 -0 -0 -0 -0 -0 -0 -0 -0 -0 -0 -0 -0 -0 -0 -0 0 0
0 0 0 0 0 0 0 0 0 0 0 0 -0 -0 0 -0 0 0 0 0 0 0 -0 -0 -0 -0 -0 -0 -0 -0 -0 -0 0 -0 0 -0 0 -0 -0 -0 -0 -0 -0
-0 -0 -0 -0 0 0 0 0 0 0 0 0 -0 -0 0 -0 -0 -0 0 0 0 -0 -0 -0 -0 0 -0 -0 0 -0 -0 -0 -0 0 0 -0 -0 -0 -0 0 -0 -0 -0
-0 -0 0 0 0 -0 0 0 0 0 0 0 -0 -0 -0 -0 -0 -0 -0 -0 -0 -0 -0 -0 -0 -0 -0 -0 -0 -0 -0 -0 0 0 0 -0 -0 -0 -0 -0 -0 -0 -0
0 -0 -0 0 0 0 -0 -0 -0 -0 0 0 0 -0 -0 -0 -0 -0 0 0 0 -0 -0 -0 0 -0 -0 -0 -0 0 -0 0 -0 -0 0 -0 0 -0 -0 -0 -0 -0 -0
0 0 0 -0 0 0 -0 -0 -0 -0 -0 -0 -0 -0 -0 -0 -0 -0 0 0 0 0 -0 -0 0 0 -0 0 0 -0 0 0 -0 -0 -0 0 0 -0 -0 -0 -0 -0 -0
0 0 -0 0 -0 -0 -0 -0 -0 -0 -0 -0 -0 -0 -0 -0 -0 -0 -0 0 0 0 -0 -0 -0 -0 -0 -0 -0 -0 -0 -0 0 0 0 -0 0 -0 -0 -0 -0 -0 -0
-0 -0 0 -0 -0 -0 -0 -0 0 -0 -0 -0 -0 -0 0 0 0 0 0 0 0 0 -0 -0 -0 0 -0 -0 -0 -0 0 -0 0 -0 -0 -0 -0 -0 -0 -0 -0 -0 -0
-0 0 -0 -0 -0 0 -0 -0 -0 0 -0 -0 -0 -0 0 -0 0 0 0 -0 -0 -0 -0 -0 0 -0 0 -0 -0 -0 -0 -0 -0 -0 -0 -0 -0 -0 -0 -0 -0 -0 -0
0 0 0 -0 -0 0 0 0 -0 -0 -0 0 -0 -0 0 0 0 0 0 -0 -0 0 -0 0 -0 -0 0 -0 -0 -0 0 0 -0 -0 0 -0 -0 -0 -0 -0 -0 -0 -0
0 -0 0 -0 0 0 0 0 0 -0 -0 -0 -0 0 -0 0 0 0 0 0 0 0 0 0 0 -0 0 -0 -0 -0 -0 0 0 -0 -0 -0 -0 -0 -0 -0 -0 -0 -0
-0 -0 -0 0 -0 0 0 0 -0 0 0 0 0 0 0 0 0 0 0 0 0 0 0 0 0 -0 -0 -0 -0 -0 -0 -0 -0 -0 0 -0 -0 -1 -0 -0 -0 -0 -0
0 0 0 0 -0 0 0 0 -0 -0 0 0 0 -0 -0 0 0 0 0 0 0 0 0 0 0 0 0 -0 -0 -0 0 -0 -0 -0 0 -0 -0 -1 -0 -0 -0 -0 -0
0 0 0 -0 0 0 -0 -0 0 0 -0 -0 -0 -0 -0 0 0 0 0 0 0 0 0 0 0 0 0 -0 0 0 0 0 -0 0 0 0 -0 -0 -1 -1 -0 -0 -0
-0 -0 -0 -0 -0 -0 -0 -0 -0 0 0 -0 -0 -0 0 -0 -0 0 -0 0 0 0 0 0 0 0 0 0 0 0 0 -0 -0 -0 -0 0 -0 -0 -0 -0 -0 -0 -0
-0 -0 -0 -0 -0 -0 -0 -0 -0 -0 0 0 -0 0 0 0 0 0 0 -0 -0 -0 -0 -0 0 0 0 0 0 0 -0 -0 0 -0 -0 -0 -0 -0 -0 -0 -0 -0 -0
-0 -0 -0 -0 -0 -0 -0 -0 0 0 0 0 -0 -0 0 0 0 -0 0 0 0 0 0 0 0 0 0 0 0 0 0 0 0 0 0 -0 -0 0 0 -0 -0 0 -0
0 -0 -0 -0 0 0 0 0 0 0 0 0 0 0 0 0 0 0 0 0 0 0 0 0 0 0 0 0 0 0 0 0 0 0 0 0 0 0 0 0 0 -0 -0
-0 -0 -0 0 0 0 0 0 0 0 0 0 0 0 0 0 -0 0 0 0 0 0 0 0 0 0 0 0 0 0 0 0 0 0 0 0 0 0 0 0 0 0 0
0 0 0 0 0 0 0 0 0 0 0 0 -0 -0 0 0 0 0 0 0 0 0 0 0 0 0 0 0 0 0 0 0 0 0 0 0 0 0 0 0 0 0 0
0 0 0 0 0 1 0 0 -0 0 0 -0 -0 -0 0 0 0 -0 -0 -0 0 0 0 0 0 0 0 0 0 0 0 0 0 0 0 0 0 0 -0 0 0 0 0
0 0 0 0 0 0 0 0 0 0 -0 0 -0 -0 -0 0 0 -0 -0 0 0 0 0 0 0 0 0 0 0 0 0 0 0 0 0 0 0 0 0 0 0 0 0
0 0 0 0 0 0 0 0 0 0 0 0 0 0 0 0 0 0 0 0 0 0 0 0 0 0 0 0 0 0 0 0 0 0 0 0 0 0 0 0 0 0 0
Wind_Speed_500mb
43 43 45 39 39 38 41 43 42 39 41 41 39 37 32 28 28 27 30 30 28 28 26 21 18 16 13 12 13 14 16 24 27 30 32 30 28 28 24 15 19 21 22
44 43 43 38 37 37 35 35 37 37 37 35 33 30 26 24 27 31 29 25 24 23 18 16 16 19 18 19 21 25 29 31 32 34 27 27 25 22 23 15 14 19 19
44 42 37 37 35 34 33 32 33 34 34 31 28 24 22 22 24 25 23 22 22 20 18 18 19 23 21 25 25 26 25 25 25 24 21 25 26 21 22 17 18 19 21
42 39 36 36 33 31 30 28 30 31 30 27 23 22 20 20 22 21 24 23 22 21 21 19 21 22 26 27 23 22 25 25 24 16 13 18 21 19 20 12 17 20 21
42 38 37 35 32 28 26 25 27 28 27 23 22 22 21 22 21 21 22 21 21 20 22 19 23 26 26 26 23 26 25 20 22 17 20 10 13 17 13 15 19 19 21
42 36 33 31 27 26 25 24 26 26 23 20 21 21 21 19 19 20 19 19 22 22 21 21 24 25 22 21 20 24 22 15 4 22 25 9 11 12 15 16 18 18 18
38 32 30 29 28 25 24 23 23 22 20 18 17 18 18 18 17 17 17 17 20 22 21 21 25 28 26 27 20 18 23 20 23 30 23 9 11 13 16 19 20 18 20
32 28 25 27 26 22 21 21 20 19 17 15 15 16 15 15 14 9 9 15 18 20 21 21 26 27 27 26 21 13 18 26 9 22 15 14 12 12 15 16 18 19 20
25 21 24 26 25 22 20 21 19 15 13 12 12 15 14 15 13 7 10 12 16 19 21 21 25 24 25 29 25 17 12 15 17 10 5 9 10 5 10 15 18 18 19
28 20 23 26 26 23 21 17 14 11 10 10 11 12 14 12 4 2 11 14 16 18 20 20 19 19 21 25 25 23 11 9 8 12 3 6 5 4 5 13 17 18 19
33 25 19 27 23 21 20 17 14 10 9 10 10 10 9 6 7 7 12 20 20 19 19 19 17 19 20 23 24 22 20 19 11 9 6 11 10 11 15 14 16 18 19
37 28 22 23 22 23 22 17 14 15 15 13 8 7 8 9 7 5 6 14 16 17 19 20 19 20 22 26 28 28 26 25 20 15 18 9 17 5 16 13 17 20 22
32 29 28 29 25 27 19 16 16 18 17 14 11 10 11 11 8 4 0 3 13 15 16 19 19 24 20 23 30 33 32 31 31 25 26 32 21 12 13 20 24 28 25
45 32 34 33 32 26 22 8 18 17 16 16 12 12 19 14 17 9 12 10 10 14 19 22 30 28 25 25 30 39 27 29 27 20 22 29 27 17 20 26 23 27 31
37 42 43 36 32 23 21 22 18 20 18 17 19 11 21 19 19 18 21 20 19 17 20 19 19 21 26 29 37 37 33 20 29 29 29 22 31 33 22 26 28 27 31
41 50 38 43 40 23 21 22 22 25 17 21 19 18 22 20 28 24 32 26 25 18 19 20 21 22 18 26 32 35 30 34 33 35 38 35 29 35 37 33 35 32 30
47 56 43 40 35 22 19 21 27 25 21 20 18 20 23 26 24 23 30 28 30 29 26 27 24 27 27 25 28 38 40 33 38 44 45 47 43 37 36 32 39 33 32
41 43 49 42 25 18 21 20 33 35 31 21 15 12 12 18 28 29 27 33 37 34 33 31 31 30 32 34 33 32 36 43 55 53 51 48 44 42 41 40 39 37 33
49 47 47 35 25 18 14 6 21 36 30 26 17 14 14 6 12 15 17 21 20 21 24 24 21 26 29 27 29 31 37 42 44 52 61 55 52 51 50 48 46 46 46
49 54 46 39 28 24 17 13 18 27 29 28 20 17 9 9 11 11 9 6 10 17 15 12 11 15 16 17 19 24 17 23 27 32 39 51 63 67 66 60 51 51 49
51 59 50 45 35 33 22 12 17 22 19 15 18 15 8 12 15 15 13 7 12 10 6 6 11 16 15 13 22 17 12 15 17 20 29 29 43 52 49 52 47 46 46
49 61 52 47 41 35 19 10 11 17 15 8 7 8 4 9 14 14 12 13 15 9 3 7 9 19 13 8 13 14 12 14 16 18 16 22 16 37 45 42 37 44 43
38 53 55 53 46 34 32 18 16 12 9 10 11 12 8 5 13 11 9 7 8 9 9 9 9 14 13 7 11 10 8 7 24 21 19 20 20 21 21 28 36 34 40
44 37 55 51 47 43 37 30 44 24 16 19 20 19 6 7 10 9 13 14 9 12 10 12 13 14 15 14 12 13 12 17 12 16 12 18 27 17 22 23 23 21 34
67 17 50 55 46 46 45 34 19 22 27 28 28 26 16 19 17 12 13 21 20 15 15 17 18 19 21 19 21 21 21 18 20 24 30 18 24 15 21 27 28 30 25
61 37 44 64 46 49 40 31 31 16 27 27 25 28 24 28 26 22 21 25 25 26 28 29 28 27 24 20 19 19 21 21 21 17 23 29 29 18 14 17 19 22 28
Wind_Direction_500mb
143 136 131 130 125 122 119 120 123 123 122 124 125 125 128 128 127 130 140 140 140 137 134 130 137 146 140 142 136 143 133 116 118 127 135 133 134 138 126 129 138 139 137
142 141 135 133 130 123 114 117 121 124 127 130 130 130 128 128 136 140 134 135 145 149 142 131 122 147 148 124 127 127 132 133 135 145 140 143 147 159 150 156 155 142 143
145 140 139 137 135 126 121 117 121 124 126 129 130 134 138 136 134 138 140 137 136 138 138 135 128 129 122 125 130 130 129 125 127 120 138 140 142 161 153 140 159 154 153
145 142 140 140 138 131 124 120 123 125 123 121 121 120 121 129 136 134 135 136 133 127 126 122 123 122 118 124 129 125 122 124 128 130 152 151 142 144 153 143 154 157 154
148 145 142 144 141 135 131 129 126 127 123 121 118 120 119 118 124 127 129 129 129 130 127 128 122 118 122 128 137 128 132 136 140 166 133 132 159 152 161 157 155 155 154
147 148 148 149 150 144 141 140 138 134 128 127 124 127 120 124 121 127 126 132 133 137 132 130 128 128 130 132 137 130 127 135 104 168 202 148 141 154 166 169 164 158 156
149 149 150 146 145 147 145 146 144 135 130 130 133 134 130 126 125 128 133 139 137 135 137 138 134 132 132 133 146 140 114 133 128 119 133 132 135 148 160 162 165 164 162
150 150 158 156 154 154 152 154 152 144 143 140 142 145 141 133 127 122 142 148 148 151 146 145 139 133 134 143 151 152 114 124 112 110 137 125 130 171 178 176 177 166 160
154 165 177 180 166 162 162 161 163 162 160 163 149 151 156 146 126 142 160 179 175 160 158 156 154 148 146 150 164 175 148 132 146 152 89 100 109 158 187 185 177 170 167
172 161 190 192 177 169 164 164 176 185 181 181 177 171 172 166 147 273 229 199 188 182 172 168 165 163 157 157 169 179 191 160 119 185 223 147 177 216 221 194 197 187 182
177 175 183 189 174 166 160 168 184 199 211 207 199 188 181 151 119 2 248 212 193 193 187 182 183 184 180 176 172 178 193 183 154 171 193 217 236 234 222 215 208 205 194
184 176 174 179 183 178 176 183 204 201 204 212 198 178 189 156 130 61 85 172 207 208 207 202 199 198 192 193 194 191 192 213 222 224 216 231 246 271 228 220 237 229 208
188 187 169 169 177 190 201 235 216 198 191 200 187 206 206 211 218 241 209 213 230 226 226 234 227 221 209 213 205 198 196 211 222 228 229 246 233 243 238 239 234 230 223
198 197 190 193 201 206 208 259 250 216 207 208 226 243 235 233 217 235 259 260 255 259 253 264 242 235 231 236 229 214 218 220 223 226 241 243 243 242 235 231 239 233 229
186 197 207 209 212 218 226 256 243 227 234 228 239 265 234 237 233 242 246 258 258 269 269 269 237 232 243 241 233 230 236 233 227 238 246 244 249 257 262 247 239 241 236
195 188 204 206 205 213 236 244 234 240 228 232 252 268 252 243 238 247 242 251 259 277 272 275 259 261 260 254 234 235 242 233 236 245 252 249 246 247 258 248 245 246 240
190 197 191 193 204 223 227 232 229 229 225 236 256 281 262 251 240 252 257 267 269 268 261 260 262 256 259 253 243 242 247 247 242 248 249 250 243 245 249 253 246 255 247
194 194 186 196 213 224 234 254 215 213 226 251 275 290 299 245 242 247 252 254 258 259 270 264 266 270 275 276 274 264 257 255 251 253 246 245 241 245 254 251 250 258 256
202 194 200 207 209 199 196 189 193 212 235 260 256 284 329 271 231 252 264 258 255 257 260 264 263 272 273 280 277 275 261 255 257 255 250 245 246 251 258 262 259 254 251
202 204 206 208 208 202 198 216 201 210 224 245 250 268 266 263 269 279 308 320 261 273 272 269 277 274 282 268 289 296 277 255 245 248 253 251 250 252 256 258 251 253 248
203 207 210 203 209 212 207 217 207 231 230 228 259 269 321 319 285 283 269 277 296 287 315 334 337 318 323 286 316 334 278 238 228 234 236 242 249 246 250 250 248 245 243
210 202 206 209 209 214 218 219 244 231 228 209 227 243 302 333 306 280 258 250 250 263 257 278 289 306 321 315 324 337 327 323 257 260 250 271 261 266 254 247 251 255 244
208 206 205 208 218 214 209 203 206 218 203 240 210 211 181 295 272 264 261 271 262 253 247 258 258 272 285 284 308 304 307 305 316 281 291 272 296 294 239 243 255 257 250
193 194 206 211 215 207 213 231 230 210 230 216 215 210 200 277 247 241 262 257 263 255 264 257 264 277 283 277 281 274 265 280 294 311 315 301 299 316 246 292 261 246 262
207 198 201 204 207 213 223 221 221 219 196 221 205 208 233 253 255 248 264 271 273 267 266 266 272 275 277 279 276 274 276 277 278 263 295 303 313 307 282 268 268 263 275
211 212 203 204 223 212 221 219 217 215 216 215 197 209 233 240 258 239 257 268 273 282 284 283 280 278 279 277 275 275 274 276 268 273 278 300 307 318 315 284 280 279 279
Wind_Speed_850mb
43 43 45 39 39 38 41 43 42 39 41 41 39 37 32 28 28 27 30 30 28 28 26 21 18 16 13 12 13 14 16 24 27 30 32 30 28 28 24 15 19 21 22
44 43 43 38 37 37 35 35 37 37 37 35 33 30 26 24 27 31 29 25 24 23 18 16 16 19 18 19 21 25 29 31 32 34 27 27 25 22 23 15 14 19 19
44 42 37 37 35 34 33 32 33 34 34 31 28 24 22 22 24 25 23 22 22 20 18 18 19 23 21 25 25 26 25 25 25 24 21 25 26 21 22 17 18 19 21
42 39 36 36 33 31 30 28 30 31 30 27 23 22 20 20 22 21 24 23 22 21 21 19 21 22 26 27 23 22 25 25 24 16 13 18 21 19 20 12 17 20 21
42 38 37 35 32 28 26 25 27 28 27 23 22 22 21 22 21 21 22 21 21 20 22 19 23 26 26 26 23 26 25 20 22 17 20 10 13 17 13 15 19 19 21
42 36 33 31 27 26 25 24 26 26 23 20 21 21 21 19 19 20 19 19 22 22 21 21 24 25 22 21 20 24 22 15 4 22 25 9 11 12 15 16 18 18 18
38 32 30 29 28 25 24 23 23 22 20 18 17 18 18 18 17 17 17 17 20 22 21 21 25 28 26 27 20 18 23 20 23 30 23 9 11 13 16 19 20 18 20
32 28 25 27 26 22 21 21 20 19 17 15 15 16 15 15 14 9 9 15 18 20 21 21 26 27 27 26 21 13 18 26 9 22 15 14 12 12 15 16 18 19 20
25 21 24 26 25 22 20 21 19 15 13 12 12 15 14 15 13 7 10 12 16 19 21 21 25 24 25 29 25 17 12 15 17 10 5 9 10 5 10 15 18 18 19
28 20 23 26 26 23 21 17 14 11 10 10 11 12 14 12 4 2 11 14 16 18 20 20 19 19 21 25 25 23 11 9 8 12 3 6 5 4 5 13 17 18 19
33 25 19 27 23 21 20 17 14 10 9 10 10 10 9 6 7 7 12 20 20 19 19 19 17 19 20 23 24 22 20 19 11 9 6 11 10 11 15 14 16 18 19
37 28 22 23 22 23 22 17 14 15 15 13 8 7 8 9 7 5 6 14 16 17 19 20 19 20 22 26 28 28 26 25 20 15 18 9 17 5 16 13 17 20 22
32 29 28 29 25 27 19 16 16 18 17 14 11 10 11 11 8 4 0 3 13 15 16 19 19 24 20 23 30 33 32 31 31 25 26 32 21 12 13 20 24 28 25
45 32 34 33 32 26 22 8 18 17 16 16 12 12 19 14 17 9 12 10 10 14 19 22 30 28 25 25 30 39 27 29 27 20 22 29 27 17 20 26 23 27 31
37 42 43 36 32 23 21 22 18 20 18 17 19 11 21 19 19 18 21 20 19 17 20 19 19 21 26 29 37 37 33 20 29 29 29 22 31 33 22 26 28 27 31
41 50 38 43 40 23 21 22 22 25 17 21 19 18 22 20 28 24 32 26 25 18 19 20 21 22 18 26 32 35 30 34 33 35 38 35 29 35 37 33 35 32 30
47 56 43 40 35 22 19 21 27 25 21 20 18 20 23 26 24 23 30 28 30 29 26 27 24 27 27 25 28 38 40 33 38 44 45 47 43 37 36 32 39 33 32
41 43 49 42 25 18 21 20 33 35 31 21 15 12 12 18 28 29 27 33 37 34 33 31 31 30 32 34 33 32 36 43 55 53 51 48 44 42 41 40 39 37 33
49 47 47 35 25 18 14 6 21 36 30 26 17 14 14 6 12 15 17 21 20 21 24 24 21 26 29 27 29 31 37 42 44 52 61 55 52 51 50 48 46 46 46
49 54 46 39 28 24 17 13 18 27 29 28 20 17 9 9 11 11 9 6 10 17 15 12 11 15 16 17 19 24 17 23 27 32 39 51 63 67 66 60 51 51 49
51 59 50 45 35 33 22 12 17 22 19 15 18 15 8 12 15 15 13 7 12 10 6 6 11 16 15 13 22 17 12 15 17 20 29 29 43 52 49 52 47 46 46
49 61 52 47 41 35 19 10 11 17 15 8 7 8 4 9 14 14 12 13 15 9 3 7 9 19 13 8 13 14 12 14 16 18 16 22 16 37 45 42 37 44 43
38 53 55 53 46 34 32 18 16 12 9 10 11 12 8 5 13 11 9 7 8 9 9 9 9 14 13 7 11 10 8 7 24 21 19 20 20 21 21 28 36 34 40
44 37 55 51 47 43 37 30 44 24 16 19 20 19 6 7 10 9 13 14 9 12 10 12 13 14 15 14 12 13 12 17 12 16 12 18 27 17 22 23 23 21 34
67 17 50 55 46 46 45 34 19 22 27 28 28 26 16 19 17 12 13 21 20 15 15 17 18 19 21 19 21 21 21 18 20 24 30 18 24 15 21 27 28 30 25
61 37 44 64 46 49 40 31 31 16 27 27 25 28 24 28 26 22 21 25 25 26 28 29 28 27 24 20 19 19 21 21 21 17 23 29 29 18 14 17 19 22 28
Wind_Direction_850mb
143 136 131 130 125 122 119 120 123 123 122 124 125 125 128 128 127 130 140 140 140 137 134 130 137 146 140 142 136 143 133 116 118 127 135 133 134 138 126 129 138 139 137
142 141 135 133 130 123 114 117 121 124 127 130 130 130 128 128 136 140 134 135 145 149 142 131 122 147 148 124 127 127 132 133 135 145 140 143 147 159 150 156 155 142 143
145 140 139 137 135 126 121 117 121 124 126 129 130 134 138 136 134 138 140 137 136 138 138 135 128 129 122 125 130 130 129 125 127 120 138 140 142 161 153 140 159 154 153
145 142 140 140 138 131 124 120 123 125 123 121 121 120 121 129 136 134 135 136 133 127 126 122 123 122 118 124 129 125 122 124 128 130 152 151 142 144 153 143 154 157 154
148 145 142 144 141 135 131 129 126 127 123 121 118 120 119 118 124 127 129 129 129 130 127 128 122 118 122 128 137 128 132 136 140 166 133 132 159 152 161 157 155 155 154
147 148 148 149 150 144 141 140 138 134 128 127 124 127 120 124 121 127 126 132 133 137 132 130 128 128 130 132 137 130 127 135 104 168 202 148 141 154 166 169 164 158 156
149 149 150 146 145 147 145 146 144 135 130 130 133 134 130 126 125 128 133 139 137 135 137 138 134 132 132 133 146 140 114 133 128 119 133 132 135 148 160 162 165 164 162
150 150 158 156 154 154 152 154 152 144 143 140 142 145 141 133 127 122 142 148 148 151 146 145 139 133 134 143 151 152 114 124 112 110 137 125 130 171 178 176 177 166 160
154 165 177 180 166 162 162 161 163 162 160 163 149 151 156 146 126 142 160 179 175 160 158 156 154 148 146 150 164 175 148 132 146 152 89 100 109 158 187 185 177 170 167
172 161 190 192 177 169 164 164 176 185 181 181 177 171 172 166 147 273 229 199 188 182 172 168 165 163 157 157 169 179 191 160 119 185 223 147 177 216 221 194 197 187 182
177 175 183 189 174 166 160 168 184 199 211 207 199 188 181 151 119 2 248 212 193 193 187 182 183 184 180 176 172 178 193 183 154 171 193 217 236 234 222 215 208 205 194
184 176 174 179 183 178 176 183 204 201 204 212 198 178 189 156 130 61 85 172 207 208 207 202 199 198 192 193 194 191 192 213 222 224 216 231 246 271 228 220 237 229 208
188 187 169 169 177 190 201 235 216 198 191 200 187 206 206 211 218 241 209 213 230 226 226 234 227 221 209 213 205 198 196 211 222 228 229 246 233 243 238 239 234 230 223
198 197 190 193 201 206 208 259 250 216 207 208 226 243 235 233 217 235 259 260 255 259 253 264 242 235 231 236 229 214 218 220 223 226 241 243 243 242 235 231 239 233 229
186 197 207 209 212 218 226 256 243 227 234 228 239 265 234 237 233 242 246 258 258 269 269 269 237 232 243 241 233 230 236 233 227 238 246 244 249 257 262 247 239 241 236
195 188 204 206 205 213 236 244 234 240 228 232 252 268 252 243 238 247 242 251 259 277 272 275 259 261 260 254 234 235 242 233 236 245 252 249 246 247 258 248 245 246 240
190 197 191 193 204 223 227 232 229 229 225 236 256 281 262 251 240 252 257 267 269 268 261 260 262 256 259 253 243 242 247 247 242 248 249 250 243 245 249 253 246 255 247
194 194 186 196 213 224 234 254 215 213 226 251 275 290 299 245 242 247 252 254 258 259 270 264 266 270 275 276 274 264 257 255 251 253 246 245 241 245 254 251 250 258 256
202 194 200 207 209 199 196 189 193 212 235 260 256 284 329 271 231 252 264 258 255 257 260 264 263 272 273 280 277 275 261 255 257 255 250 245 246 251 258 262 259 254 251
202 204 206 208 208 202 198 216 201 210 224 245 250 268 266 263 269 279 308 320 261 273 272 269 277 274 282 268 289 296 277 255 245 248 253 251 250 252 256 258 251 253 248
203 207 210 203 209 212 207 217 207 231 230 228 259 269 321 319 285 283 269 277 296 287 315 334 337 318 323 286 316 334 278 238 228 234 236 242 249 246 250 250 248 245 243
210 202 206 209 209 214 218 219 244 231 228 209 227 243 302 333 306 280 258 250 250 263 257 278 289 306 321 315 324 337 327 323 257 260 250 271 261 266 254 247 251 255 244
208 206 205 208 218 214 209 203 206 218 203 240 210 211 181 295 272 264 261 271 262 253 247 258 258 272 285 284 308 304 307 305 316 281 291 272 296 294 239 243 255 257 250
193 194 206 211 215 207 213 231 230 210 230 216 215 210 200 277 247 241 262 257 263 255 264 257 264 277 283 277 281 274 265 280 294 311 315 301 299 316 246 292 261 246 262
207 198 201 204 207 213 223 221 221 219 196 221 205 208 233 253 255 248 264 271 273 267 266 266 272 275 277 279 276 274 276 277 278 263 295 303 313 307 282 268 268 263 275
211 212 203 204 223 212 221 219 217 215 216 215 197 209 233 240 258 239 257 268 273 282 284 283 280 278 279 277 275 275 274 276 268 273 278 300 307 318 315 284 280 279 279